Voltar ao catálogo

KUIPER-00560

AtivoComunicaçõesVLEO
NORAD 69623·PAYLOAD·🇺🇸 United States

Lançado Jun 17, 2026 de Guiana Space Centre

Loading…

Próximas Passagens (próximas 24 horas)

TLE

AtualizadoSource: CelesTrak SupGP

Época: Sep 15, 2026, 01:54 UTC

1 69623C 26140AH  26258.07957176  .00005493  00000+0  14856-3 0  2589
2 69623  51.8781 324.0761 0008061 168.8200 145.8728 15.37073864    11

Acompanhe KUIPER-00560 em tempo real com AllMySat

Download on the App Store